WBANNO,USDM_WEEK,LONGITUDE,LATITUDE,SMVWC_5_CM_MEAN,SMANOM_5_CM_MEAN,SMPERC_5_CM_30COUNTS,SMPERC_5_CM_70COUNTS,SMVWC_10_CM_MEAN,SMANOM_10_CM_MEAN,SMPERC_10_CM_30COUNTS,SMPERC_10_CM_70COUNTS,SMVWC_20_CM_MEAN,SMANOM_20_CM_MEAN,SMPERC_20_CM_30COUNTS,SMPERC_20_CM_70COUNTS,SMVWC_50_CM_MEAN,SMANOM_50_CM_MEAN,SMPERC_50_CM_30COUNTS,SMPERC_50_CM_70COUNTS,SMVWC_100_CM_MEAN,SMANOM_100_CM_MEAN,SMPERC_100_CM_30COUNTS,SMPERC_100_CM_70COUNTS,SMVWC_TOP_CM_MEAN,SMANOM_TOP_CM_MEAN,SMPERC_TOP_CM_30COUNTS,SMPERC_TOP_CM_70COUNTS,SMVWC_COLUMN_CM_MEAN,SMANOM_COLUMN_CM_MEAN,SMPERC_COLUMN_CM_30COUNTS,SMPERC_COLUMN_CM_70COUNTS
04223,20110805,-121.45,48.54,,,,,,,,,,,,,,,,,,,,,,,,,,,,
04223,20110806,-121.45,48.54,,,,,,,,,,,,,,,,,,,,,,,,,,,,
04223,20110807,-121.45,48.54,,,,,,,,,,,,,,,,,,,,,,,,,,,,
04223,20110808,-121.45,48.54,,,,,,,,,,,,,,,,,,,,,,,,,,,,
04223,20110809,-121.45,48.54,,,,,,,,,,,,,,,,,,,,,,,,,,,,
04223,20110810,-121.45,48.54,,,,,,,,,,,,,,,,,,,,,,,,,,,,
04223,20110811,-121.45,48.54,0.108,0.61,0,1,0.18,1.12,0,1,0.12,0.87,0,1,0.077,0.63,0,1,0.142,0.69,0,1,0.144,0.9,0,1,0.126,0.78,0,1
04223,20110812,-121.45,48.54,0.108,0.62,0,1,0.18,1.15,0,1,0.119,0.9,0,1,0.078,0.66,0,1,0.142,0.71,0,1,0.144,0.92,0,1,0.125,0.8,0,1
04223,20110813,-121.45,48.54,0.108,0.64,0,1,0.179,1.19,0,1,0.119,0.95,0,1,0.078,0.69,0,1,0.141,0.73,0,1,0.143,0.95,0,1,0.125,0.83,0,1
04223,20110814,-121.45,48.54,0.107,0.65,0,1,0.178,1.22,0,1,0.118,0.99,0,1,0.077,0.72,0,1,0.14,0.74,0,1,0.143,0.97,0,1,0.124,0.85,0,1
04223,20110815,-121.45,48.54,0.106,0.65,0,1,0.177,1.24,0,1,0.117,1.03,0,1,0.077,0.74,0,1,0.139,0.76,0,1,0.141,0.98,0,1,0.123,0.87,0,1
04223,20110816,-121.45,48.54,0.105,0.64,0,1,0.176,1.26,0,1,0.116,1.07,0,1,0.076,0.76,0,1,0.138,0.77,0,1,0.14,0.99,0,1,0.122,0.89,0,1
04223,20110817,-121.45,48.54,0.103,0.64,0,1,0.175,1.27,0,1,0.115,1.08,0,1,0.076,0.77,0,1,0.138,0.78,0,1,0.139,1,0,1,0.121,0.9,0,1
04223,20110818,-121.45,48.54,0.102,0.62,0,1,0.173,1.27,0,1,0.114,1.09,0,1,0.075,0.78,0,1,0.137,0.79,0,1,0.138,1.01,0,1,0.12,0.91,0,1
04223,20110819,-121.45,48.54,0.1,0.6,0,1,0.171,1.26,0,1,0.113,1.09,0,1,0.075,0.78,0,1,0.136,0.8,0,1,0.136,1.01,0,1,0.119,0.91,0,1
04223,20110820,-121.45,48.54,0.099,0.57,0,1,0.169,1.24,0,1,0.111,1.08,0,1,0.074,0.78,0,1,0.135,0.8,0,1,0.134,0.99,0,1,0.117,0.91,0,1
04223,20110821,-121.45,48.54,0.097,0.54,0,1,0.166,1.22,0,1,0.109,1.05,0,1,0.073,0.77,0,1,0.134,0.8,0,1,0.131,0.97,0,1,0.116,0.9,0,1
04223,20110822,-121.45,48.54,0.095,0.5,0,1,0.163,1.18,0,1,0.107,1.02,0,1,0.073,0.77,0,1,0.133,0.79,0,1,0.129,0.94,0,1,0.114,0.9,0,1
04223,20110823,-121.45,48.54,0.095,0.5,0,1,0.164,1.19,0,1,0.104,0.99,0,1,0.072,0.76,0,1,0.132,0.79,0,1,0.129,0.95,0,1,0.113,0.9,0,1
04223,20110824,-121.45,48.54,0.098,0.56,0,1,0.168,1.24,0,1,0.103,0.95,0,1,0.071,0.76,0,1,0.131,0.79,0,1,0.133,1,0,1,0.114,0.93,0,1
04223,20110825,-121.45,48.54,0.101,0.61,0,1,0.17,1.26,0,1,0.101,0.92,0,1,0.07,0.75,0,1,0.13,0.79,0,1,0.135,1.03,0,1,0.115,0.93,0,1
04223,20110826,-121.45,48.54,0.103,0.65,0,1,0.171,1.25,0,1,0.1,0.89,0,1,0.07,0.74,0,1,0.129,0.8,0,1,0.137,1.03,0,1,0.115,0.93,0,1
04223,20110827,-121.45,48.54,0.104,0.66,0,1,0.171,1.22,0,1,0.098,0.85,0,1,0.069,0.72,0,1,0.128,0.8,0,1,0.137,1.02,0,1,0.114,0.91,0,1
04223,20110828,-121.45,48.54,0.104,0.67,0,1,0.17,1.19,0,1,0.097,0.8,0,1,0.069,0.7,0,1,0.127,0.81,0,1,0.137,1,0,1,0.113,0.89,0,1
04223,20110829,-121.45,48.54,0.104,0.66,0,0.958,0.169,1.14,0,1,0.095,0.75,0,1,0.068,0.68,0,1,0.126,0.82,0,1,0.136,0.98,0,1,0.112,0.85,0,1
04223,20110830,-121.45,48.54,0.102,0.61,0,0.815,0.164,1.04,0,1,0.093,0.69,0,1,0.067,0.66,0,1,0.125,0.82,0,1,0.133,0.9,0,1,0.11,0.79,0,1
04223,20110831,-121.45,48.54,0.096,0.49,0,0.673,0.155,0.9,0,1,0.091,0.62,0,1,0.066,0.63,0,1,0.124,0.82,0,1,0.125,0.75,0,1,0.106,0.71,0,1
04223,20110901,-121.45,48.54,0.091,0.39,0,0.53,0.147,0.78,0,1,0.088,0.55,0,1,0.065,0.61,0,1,0.123,0.8,0,1,0.119,0.64,0,1,0.103,0.63,0,1
04223,20110902,-121.45,48.54,0.087,0.3,0,0.387,0.141,0.68,0,1,0.086,0.49,0,0.946,0.064,0.58,0,1,0.122,0.79,0,1,0.114,0.54,0,0.905,0.1,0.57,0,1
04223,20110903,-121.45,48.54,0.084,0.23,0,0.244,0.135,0.59,0,1,0.083,0.43,0,0.81,0.063,0.55,0,1,0.12,0.77,0,1,0.109,0.45,0,0.762,0.097,0.51,0,1
04223,20110904,-121.45,48.54,0.081,0.18,0,0.101,0.13,0.51,0,0.917,0.081,0.37,0,0.667,0.062,0.52,0,1,0.119,0.74,0,1,0.106,0.37,0,0.619,0.095,0.45,0,0.935
04223,20110905,-121.45,48.54,0.079,0.13,0,0,0.124,0.43,0,0.774,0.079,0.32,0,0.524,0.061,0.48,0,0.952,0.117,0.71,0,1,0.102,0.3,0,0.476,0.092,0.39,0,0.792
04223,20110906,-121.45,48.54,0.077,0.08,0,0,0.119,0.35,0,0.631,0.076,0.26,0,0.381,0.059,0.44,0,0.815,0.116,0.68,0,1,0.098,0.23,0,0.333,0.09,0.34,0,0.649
04223,20110907,-121.45,48.54,0.075,0.03,0,0,0.114,0.27,0,0.488,0.074,0.21,0,0.238,0.058,0.39,0,0.673,0.114,0.64,0,1,0.095,0.16,0,0.19,0.087,0.28,0,0.506
04223,20110908,-121.45,48.54,0.073,-0.02,0,0,0.108,0.19,0,0.345,0.071,0.16,0,0.095,0.057,0.34,0,0.53,0.113,0.61,0,1,0.091,0.09,0,0.048,0.084,0.22,0,0.363
04223,20110909,-121.45,48.54,0.071,-0.07,0,0,0.103,0.1,0,0.202,0.069,0.1,0,0.006,0.055,0.28,0,0.387,0.112,0.58,0,1,0.087,0.01,0,0,0.082,0.16,0,0.22
04223,20110910,-121.45,48.54,0.069,-0.13,0,0,0.098,0.02,0,0.06,0.066,0.05,0,0,0.053,0.21,0,0.244,0.11,0.54,0,0.964,0.083,-0.06,0,0,0.079,0.09,0,0.077
04223,20110911,-121.45,48.54,0.067,-0.18,0,0,0.093,-0.06,0,0,0.064,-0.01,0,0,0.051,0.15,0,0.101,0.108,0.49,0,0.827,0.08,-0.13,0,0,0.077,0.02,0,0
04223,20110912,-121.45,48.54,0.065,-0.22,0,0,0.089,-0.13,0,0,0.061,-0.06,0,0,0.05,0.09,0,0.006,0.107,0.44,0,0.685,0.077,-0.18,0,0,0.074,-0.04,0,0
04223,20110913,-121.45,48.54,0.063,-0.26,0.024,0,0.085,-0.19,0.054,0,0.059,-0.1,0,0,0.048,0.03,0,0,0.105,0.37,0,0.542,0.074,-0.23,0,0,0.072,-0.09,0,0
04223,20110914,-121.45,48.54,0.061,-0.3,0.155,0,0.082,-0.25,0.196,0,0.057,-0.15,0,0,0.046,-0.03,0,0,0.104,0.3,0,0.399,0.071,-0.28,0.065,0,0.07,-0.14,0,0
04223,20110915,-121.45,48.54,0.059,-0.33,0.298,0,0.079,-0.3,0.339,0,0.055,-0.2,0.107,0,0.044,-0.07,0,0,0.102,0.23,0,0.256,0.069,-0.32,0.208,0,0.068,-0.18,0,0
04223,20110916,-121.45,48.54,0.058,-0.37,0.44,0,0.077,-0.34,0.482,0,0.054,-0.24,0.25,0,0.043,-0.11,0,0,0.1,0.15,0,0.113,0.068,-0.36,0.351,0,0.066,-0.22,0.024,0
04223,20110917,-121.45,48.54,0.058,-0.4,0.583,0,0.076,-0.37,0.625,0,0.052,-0.28,0.393,0,0.042,-0.15,0,0,0.099,0.09,0,0.006,0.067,-0.4,0.494,0,0.065,-0.25,0.107,0
04223,20110918,-121.45,48.54,0.057,-0.44,0.726,0,0.076,-0.4,0.768,0,0.051,-0.31,0.536,0,0.041,-0.17,0,0,0.097,0.02,0,0,0.067,-0.43,0.637,0,0.064,-0.29,0.25,0
04223,20110919,-121.45,48.54,0.062,-0.46,0.833,0,0.079,-0.43,0.887,0,0.05,-0.34,0.679,0,0.04,-0.19,0,0,0.096,-0.03,0,0,0.07,-0.45,0.756,0,0.066,-0.31,0.268,0
04223,20110920,-121.45,48.54,0.068,-0.46,0.887,0,0.086,-0.42,0.833,0,0.05,-0.37,0.821,0,0.04,-0.2,0,0,0.095,-0.07,0,0,0.077,-0.46,0.804,0,0.068,-0.32,0.268,0
04223,20110921,-121.45,48.54,0.072,-0.48,0.899,0,0.093,-0.43,0.804,0,0.05,-0.41,0.964,0,0.04,-0.22,0,0,0.094,-0.11,0,0,0.082,-0.48,0.881,0,0.07,-0.34,0.357,0
04223,20110922,-121.45,48.54,0.075,-0.51,0.899,0,0.099,-0.46,0.804,0,0.051,-0.45,1,0,0.039,-0.25,0.107,0,0.094,-0.14,0,0,0.087,-0.51,0.881,0,0.072,-0.37,0.5,0
04223,20110923,-121.45,48.54,0.082,-0.52,0.899,0,0.108,-0.47,0.804,0,0.051,-0.51,1,0,0.039,-0.31,0.25,0,0.093,-0.17,0,0,0.095,-0.52,0.881,0,0.075,-0.41,0.619,0
04223,20110924,-121.45,48.54,0.089,-0.54,0.899,0,0.118,-0.48,0.804,0,0.052,-0.58,1,0,0.04,-0.39,0.393,0,0.093,-0.22,0.077,0,0.103,-0.53,0.881,0,0.078,-0.45,0.679,0
04223,20110925,-121.45,48.54,0.093,-0.57,0.899,0,0.127,-0.5,0.804,0,0.052,-0.64,1,0,0.04,-0.47,0.536,0,0.092,-0.28,0.22,0,0.11,-0.56,0.881,0,0.081,-0.51,0.679,0
04223,20110926,-121.45,48.54,0.096,-0.63,0.935,0,0.133,-0.52,0.827,0,0.053,-0.72,1,0,0.04,-0.56,0.679,0,0.092,-0.34,0.363,0,0.114,-0.59,0.905,0,0.083,-0.58,0.804,0
04223,20110927,-121.45,48.54,0.103,-0.64,0.964,0,0.143,-0.51,0.887,0,0.068,-0.69,0.911,0.036,0.048,-0.58,0.744,0,0.092,-0.4,0.506,0,0.123,-0.59,0.917,0,0.091,-0.59,0.863,0
04223,20110928,-121.45,48.54,0.114,-0.62,0.845,0,0.161,-0.44,0.774,0,0.087,-0.62,0.768,0.036,0.061,-0.56,0.744,0,0.094,-0.46,0.649,0,0.138,-0.53,0.774,0,0.103,-0.57,0.774,0
04223,20110929,-121.45,48.54,0.124,-0.6,0.845,0,0.178,-0.36,0.631,0,0.103,-0.55,0.625,0.036,0.071,-0.54,0.679,0,0.097,-0.5,0.792,0,0.151,-0.49,0.72,0,0.115,-0.54,0.732,0
04223,20110930,-121.45,48.54,0.127,-0.64,0.845,0,0.19,-0.31,0.488,0,0.118,-0.49,0.542,0.036,0.081,-0.51,0.679,0,0.103,-0.54,0.935,0,0.159,-0.47,0.72,0,0.124,-0.52,0.732,0
04223,20111001,-121.45,48.54,0.131,-0.67,0.845,0,0.2,-0.29,0.417,0,0.131,-0.43,0.542,0.036,0.09,-0.47,0.679,0,0.109,-0.56,1,0,0.165,-0.48,0.72,0,0.132,-0.5,0.732,0
04223,20111002,-121.45,48.54,0.137,-0.68,0.845,0,0.211,-0.27,0.417,0,0.144,-0.39,0.542,0.036,0.098,-0.43,0.679,0,0.115,-0.57,1,0,0.174,-0.48,0.72,0,0.141,-0.48,0.732,0
04223,20111003,-121.45,48.54,0.143,-0.7,0.845,0,0.222,-0.25,0.417,0,0.157,-0.36,0.542,0.036,0.106,-0.41,0.679,0,0.121,-0.58,1,0,0.183,-0.5,0.72,0,0.15,-0.47,0.732,0
04223,20111004,-121.45,48.54,0.148,-0.72,0.881,0,0.232,-0.2,0.363,0.012,0.161,-0.38,0.548,0,0.109,-0.45,0.756,0,0.128,-0.6,1,0,0.19,-0.49,0.696,0,0.156,-0.49,0.815,0
04223,20111005,-121.45,48.54,0.151,-0.76,1,0,0.237,-0.18,0.363,0.03,0.164,-0.39,0.548,0,0.112,-0.49,0.899,0,0.136,-0.62,1,0,0.194,-0.5,0.744,0,0.16,-0.52,0.958,0
04223,20111006,-121.45,48.54,0.158,-0.75,1,0,0.246,-0.11,0.363,0.131,0.17,-0.34,0.548,0.089,0.117,-0.48,0.917,0,0.145,-0.63,0.97,0,0.202,-0.46,0.685,0,0.167,-0.49,0.899,0
04223,20111007,-121.45,48.54,0.167,-0.72,1,0,0.257,-0.03,0.363,0.179,0.178,-0.27,0.488,0.131,0.125,-0.43,0.774,0,0.154,-0.6,0.935,0,0.212,-0.4,0.542,0,0.176,-0.44,0.756,0
04223,20111008,-121.45,48.54,0.178,-0.64,0.958,0,0.268,0.06,0.292,0.179,0.188,-0.19,0.345,0.131,0.134,-0.37,0.631,0,0.162,-0.58,0.935,0,0.223,-0.3,0.399,0,0.186,-0.36,0.613,0
04223,20111009,-121.45,48.54,0.186,-0.58,0.958,0,0.279,0.15,0.149,0.179,0.196,-0.1,0.202,0.131,0.143,-0.32,0.494,0,0.171,-0.55,0.935,0,0.233,-0.22,0.256,0,0.195,-0.3,0.47,0
04223,20111010,-121.45,48.54,0.194,-0.51,0.958,0,0.289,0.24,0.006,0.179,0.205,0,0.06,0.131,0.151,-0.26,0.357,0,0.179,-0.53,0.935,0,0.242,-0.12,0.113,0,0.204,-0.22,0.327,0
04223,20111011,-121.45,48.54,0.201,-0.43,0.863,0.006,0.293,0.27,0,0.22,0.209,0.05,0,0.149,0.157,-0.18,0.232,0.006,0.188,-0.49,0.929,0,0.247,-0.05,0.077,0.036,0.21,-0.14,0.185,0.018
04223,20111012,-121.45,48.54,0.212,-0.27,0.72,0.113,0.304,0.42,0,0.345,0.222,0.35,0,0.292,0.178,0.22,0.089,0.149,0.204,-0.12,0.786,0.137,0.258,0.12,0.03,0.179,0.224,0.13,0.042,0.161
04223,20111013,-121.45,48.54,0.223,-0.12,0.577,0.226,0.311,0.51,0,0.387,0.23,0.51,0,0.345,0.192,0.51,0.03,0.292,0.217,0.17,0.673,0.28,0.267,0.24,0,0.321,0.235,0.32,0,0.304
04223,20111014,-121.45,48.54,0.231,-0.02,0.435,0.226,0.315,0.55,0,0.482,0.234,0.57,0,0.446,0.2,0.66,0.03,0.435,0.224,0.32,0.565,0.423,0.273,0.32,0,0.464,0.241,0.42,0,0.446
04223,20111015,-121.45,48.54,0.236,0.04,0.333,0.226,0.317,0.57,0,0.625,0.236,0.6,0,0.5,0.206,0.76,0.03,0.577,0.23,0.43,0.423,0.565,0.277,0.36,0,0.512,0.245,0.48,0,0.56
04223,20111016,-121.45,48.54,0.242,0.11,0.19,0.226,0.32,0.59,0,0.69,0.237,0.61,0,0.5,0.212,0.84,0.024,0.714,0.234,0.52,0.28,0.589,0.281,0.4,0,0.512,0.249,0.53,0,0.56
04223,20111017,-121.45,48.54,0.247,0.16,0.048,0.226,0.321,0.6,0,0.69,0.238,0.6,0,0.5,0.216,0.9,0.018,0.72,0.239,0.59,0.137,0.589,0.284,0.42,0,0.512,0.252,0.56,0,0.56
04223,20111018,-121.45,48.54,0.248,0.15,0,0.22,0.321,0.56,0,0.637,0.238,0.56,0,0.482,0.219,0.93,0,0.714,0.242,0.64,0,0.589,0.284,0.4,0,0.476,0.253,0.55,0,0.542
04223,20111019,-121.45,48.54,0.242,0.04,0.012,0.113,0.311,0.39,0,0.494,0.225,0.23,0.125,0.339,0.204,0.57,0,0.571,0.233,0.36,0,0.452,0.277,0.24,0,0.333,0.243,0.31,0,0.399
04223,20111020,-121.45,48.54,0.237,-0.07,0.113,0,0.303,0.23,0,0.351,0.216,-0.03,0.268,0.196,0.192,0.28,0,0.429,0.225,0.11,0.083,0.31,0.27,0.1,0,0.19,0.235,0.11,0.06,0.256
04223,20111021,-121.45,48.54,0.241,-0.05,0.113,0.048,0.304,0.21,0,0.327,0.214,-0.12,0.292,0.054,0.189,0.16,0,0.321,0.222,-0.01,0.101,0.167,0.273,0.09,0,0.143,0.234,0.05,0.06,0.113
04223,20111022,-121.45,48.54,0.249,0.01,0.113,0.143,0.31,0.27,0,0.321,0.218,-0.06,0.292,0.089,0.193,0.21,0,0.274,0.225,0.04,0.101,0.107,0.279,0.15,0,0.208,0.239,0.1,0.06,0.095
04223,20111023,-121.45,48.54,0.259,0.11,0.113,0.268,0.317,0.36,0,0.399,0.226,0.09,0.292,0.232,0.201,0.35,0,0.28,0.231,0.17,0.101,0.226,0.288,0.23,0,0.351,0.247,0.21,0.06,0.238
04223,20111024,-121.45,48.54,0.265,0.15,0.113,0.268,0.322,0.4,0,0.518,0.231,0.17,0.292,0.315,0.206,0.41,0,0.417,0.234,0.23,0.101,0.298,0.294,0.27,0,0.393,0.252,0.26,0.06,0.298
04223,20111025,-121.45,48.54,0.272,0.2,0.113,0.268,0.327,0.44,0,0.536,0.235,0.24,0.292,0.315,0.21,0.46,0,0.47,0.236,0.26,0.101,0.298,0.299,0.31,0,0.393,0.256,0.3,0.06,0.298
04223,20111026,-121.45,48.54,0.278,0.24,0.101,0.268,0.331,0.47,0,0.536,0.239,0.3,0.167,0.315,0.214,0.51,0,0.47,0.238,0.29,0.101,0.298,0.304,0.34,0,0.393,0.26,0.33,0.06,0.298
04223,20111027,-121.45,48.54,0.282,0.26,0,0.268,0.334,0.5,0,0.536,0.243,0.36,0.024,0.315,0.217,0.55,0,0.47,0.241,0.32,0.018,0.298,0.308,0.36,0,0.393,0.263,0.36,0,0.298
04223,20111028,-121.45,48.54,0.28,0.19,0,0.22,0.333,0.44,0,0.417,0.243,0.34,0,0.315,0.216,0.52,0,0.435,0.241,0.29,0.03,0.298,0.306,0.29,0,0.298,0.263,0.31,0,0.298
04223,20111029,-121.45,48.54,0.279,0.15,0,0.179,0.331,0.4,0,0.357,0.242,0.29,0,0.298,0.213,0.44,0,0.405,0.238,0.19,0.083,0.274,0.305,0.24,0,0.268,0.261,0.26,0,0.28
04223,20111030,-121.45,48.54,0.275,0.07,0,0.054,0.328,0.33,0,0.31,0.238,0.18,0,0.22,0.208,0.34,0,0.405,0.235,0.08,0.083,0.19,0.302,0.17,0,0.149,0.257,0.16,0,0.185
04223,20111031,-121.45,48.54,0.279,0.09,0,0.137,0.33,0.36,0,0.292,0.238,0.19,0,0.22,0.209,0.34,0,0.381,0.235,0.07,0.083,0.19,0.305,0.19,0,0.208,0.258,0.18,0,0.22
04223,20111101,-121.45,48.54,0.283,0.13,0,0.196,0.334,0.41,0,0.417,0.241,0.25,0,0.363,0.211,0.41,0,0.47,0.236,0.12,0.083,0.321,0.309,0.23,0,0.304,0.261,0.23,0,0.351
04223,20111102,-121.45,48.54,0.286,0.13,0,0.196,0.336,0.43,0,0.458,0.242,0.27,0,0.369,0.213,0.44,0,0.571,0.238,0.15,0.083,0.321,0.311,0.24,0,0.304,0.263,0.25,0,0.351
04223,20111103,-121.45,48.54,0.289,0.16,0,0.208,0.338,0.44,0,0.464,0.244,0.28,0,0.369,0.214,0.46,0,0.571,0.238,0.16,0.083,0.321,0.313,0.26,0,0.333,0.265,0.27,0,0.351
04223,20111104,-121.45,48.54,0.296,0.24,0,0.274,0.344,0.53,0,0.595,0.248,0.38,0,0.476,0.219,0.56,0,0.69,0.241,0.25,0.054,0.399,0.32,0.35,0,0.446,0.269,0.37,0,0.476
04223,20111105,-121.45,48.54,0.296,0.22,0,0.22,0.343,0.5,0,0.554,0.247,0.35,0,0.405,0.219,0.54,0,0.673,0.241,0.26,0,0.339,0.319,0.33,0,0.363,0.269,0.36,0,0.399
04223,20111106,-121.45,48.54,0.295,0.19,0,0.22,0.341,0.46,0,0.458,0.246,0.29,0,0.339,0.216,0.48,0,0.53,0.24,0.19,0,0.28,0.318,0.29,0,0.339,0.268,0.31,0,0.351
04223,20111107,-121.45,48.54,0.29,0.1,0,0.137,0.337,0.37,0,0.357,0.242,0.18,0.006,0.256,0.213,0.36,0,0.411,0.238,0.09,0.083,0.208,0.314,0.2,0,0.238,0.264,0.21,0,0.256
04223,20111108,-121.45,48.54,0.29,0.09,0,0.149,0.336,0.34,0,0.28,0.24,0.1,0.054,0.161,0.21,0.28,0,0.315,0.236,0,0.173,0.107,0.313,0.19,0,0.214,0.262,0.17,0,0.185
04223,20111109,-121.45,48.54,0.295,0.14,0,0.214,0.34,0.4,0,0.381,0.243,0.18,0.054,0.274,0.213,0.36,0,0.357,0.238,0.08,0.173,0.25,0.317,0.25,0,0.345,0.266,0.25,0,0.315
04223,20111110,-121.45,48.54,0.296,0.14,0,0.202,0.341,0.41,0,0.435,0.244,0.2,0.054,0.274,0.214,0.39,0,0.405,0.238,0.11,0.173,0.256,0.318,0.25,0,0.315,0.267,0.26,0,0.315
04223,20111111,-121.45,48.54,0.292,0.06,0,0.137,0.338,0.33,0,0.304,0.241,0.12,0.054,0.167,0.212,0.31,0,0.286,0.237,0.04,0.173,0.179,0.315,0.17,0,0.202,0.264,0.18,0,0.19
04223,20111112,-121.45,48.54,0.297,0.13,0,0.25,0.342,0.41,0,0.375,0.247,0.25,0.054,0.262,0.216,0.41,0,0.333,0.24,0.17,0.179,0.268,0.32,0.25,0,0.315,0.268,0.29,0,0.292
04223,20111113,-121.45,48.54,0.305,0.24,0,0.333,0.348,0.53,0,0.518,0.253,0.42,0.054,0.399,0.222,0.56,0,0.476,0.244,0.35,0.179,0.411,0.327,0.37,0,0.458,0.274,0.43,0,0.435
04223,20111114,-121.45,48.54,0.316,0.4,0,0.476,0.358,0.71,0,0.661,0.263,0.7,0.048,0.542,0.232,0.83,0,0.619,0.251,0.69,0.095,0.554,0.337,0.55,0,0.601,0.284,0.68,0,0.577
04223,20111115,-121.45,48.54,0.318,0.41,0,0.488,0.361,0.76,0,0.738,0.267,0.8,0,0.619,0.237,0.93,0,0.714,0.255,0.84,0.006,0.667,0.34,0.58,0,0.673,0.287,0.76,0,0.661
04223,20111116,-121.45,48.54,0.317,0.38,0,0.423,0.359,0.7,0,0.655,0.265,0.73,0,0.5,0.234,0.85,0,0.643,0.254,0.78,0.006,0.536,0.338,0.53,0,0.542,0.286,0.69,0,0.542
04223,20111117,-121.45,48.54,0.322,0.44,0,0.5,0.363,0.77,0,0.667,0.269,0.85,0,0.56,0.237,0.94,0,0.655,0.256,0.88,0.006,0.583,0.342,0.6,0,0.619,0.289,0.79,0,0.613
04223,20111118,-121.45,48.54,0.328,0.53,0,0.643,0.369,0.89,0,0.81,0.275,1.01,0,0.702,0.243,1.1,0,0.798,0.259,1.07,0.006,0.726,0.349,0.71,0,0.762,0.295,0.93,0,0.756
04223,20111119,-121.45,48.54,0.328,0.51,0,0.625,0.368,0.86,0,0.845,0.272,0.94,0,0.744,0.242,1.07,0,0.845,0.258,1.03,0,0.78,0.348,0.69,0,0.792,0.294,0.89,0,0.798
04223,20111120,-121.45,48.54,0.324,0.44,0,0.542,0.365,0.78,0,0.768,0.268,0.83,0,0.607,0.238,0.97,0,0.78,0.256,0.91,0,0.661,0.344,0.6,0,0.661,0.29,0.79,0,0.685
04223,20111121,-121.45,48.54,0.315,0.3,0,0.399,0.357,0.61,0,0.625,0.26,0.57,0,0.464,0.229,0.73,0,0.637,0.25,0.6,0,0.518,0.336,0.44,0,0.518,0.282,0.57,0,0.542
04223,20111122,-121.45,48.54,0.313,0.26,0,0.375,0.354,0.54,0,0.536,0.256,0.46,0,0.351,0.225,0.61,0,0.524,0.247,0.45,0,0.375,0.334,0.39,0,0.435,0.279,0.48,0,0.446
04223,20111123,-121.45,48.54,0.323,0.4,0,0.518,0.362,0.74,0,0.619,0.269,0.85,0,0.494,0.239,1.02,0,0.595,0.253,0.79,0,0.5,0.342,0.57,0,0.577,0.289,0.78,0,0.577
04223,20111124,-121.45,48.54,0.326,0.44,0,0.583,0.366,0.83,0,0.69,0.275,1.01,0,0.577,0.248,1.27,0,0.679,0.258,1,0,0.589,0.346,0.63,0,0.643,0.294,0.93,0,0.649
04223,20111125,-121.45,48.54,0.328,0.45,0,0.577,0.366,0.84,0,0.69,0.275,1,0,0.577,0.249,1.28,0,0.679,0.257,0.98,0,0.589,0.347,0.65,0,0.643,0.295,0.94,0,0.649
04223,20111126,-121.45,48.54,0.329,0.47,0,0.613,0.367,0.88,0,0.69,0.276,1.04,0,0.583,0.251,1.34,0,0.679,0.259,1.03,0,0.589,0.348,0.68,0,0.643,0.297,0.99,0,0.649
04223,20111127,-121.45,48.54,0.334,0.54,0,0.679,0.371,0.95,0,0.768,0.28,1.12,0,0.637,0.254,1.42,0,0.744,0.26,1.08,0,0.667,0.352,0.76,0,0.774,0.3,1.07,0,0.762
04223,20111128,-121.45,48.54,0.343,0.68,0,0.81,0.379,1.14,0,0.911,0.291,1.42,0,0.78,0.269,1.8,0,0.887,0.268,1.42,0,0.81,0.361,0.93,0,0.917,0.31,1.35,0,0.905
04223,20111129,-121.45,48.54,0.344,0.68,0,0.75,0.381,1.19,0,1,0.294,1.49,0,0.845,0.274,1.91,0,1,0.27,1.53,0,0.923,0.363,0.96,0,0.964,0.312,1.41,0,0.964
04223,20111130,-121.45,48.54,0.336,0.55,0,0.607,0.373,1,0,0.976,0.281,1.09,0,0.702,0.26,1.52,0,1,0.263,1.18,0,0.786,0.354,0.78,0,0.833,0.302,1.11,0,0.821
04223,20111201,-121.45,48.54,0.331,0.46,0,0.464,0.366,0.85,0,0.958,0.271,0.81,0,0.56,0.249,1.21,0,1,0.258,0.89,0,0.643,0.348,0.66,0,0.726,0.295,0.88,0,0.679
04223,20111202,-121.45,48.54,0.326,0.38,0,0.327,0.362,0.75,0,0.815,0.266,0.66,0,0.417,0.244,1.08,0,0.905,0.255,0.74,0,0.5,0.344,0.56,0,0.583,0.29,0.75,0,0.536
04223,20111203,-121.45,48.54,0.321,0.3,0,0.196,0.357,0.64,0,0.673,0.261,0.53,0,0.274,0.239,0.93,0,0.762,0.251,0.58,0,0.357,0.339,0.47,0,0.44,0.286,0.62,0,0.393
04223,20111204,-121.45,48.54,0.316,0.21,0,0.131,0.352,0.53,0,0.53,0.256,0.4,0,0.22,0.234,0.82,0,0.619,0.248,0.45,0,0.256,0.334,0.35,0,0.298,0.281,0.49,0,0.25
04223,20111205,-121.45,48.54,0.307,0.06,0,0,0.343,0.32,0,0.387,0.244,0.06,0,0.077,0.219,0.42,0,0.476,0.24,0.06,0.018,0.113,0.325,0.16,0,0.155,0.271,0.18,0,0.107
04223,20111206,-121.45,48.54,0.306,0.03,0.006,0,0.339,0.21,0,0.244,0.24,-0.06,0.012,0,0.213,0.27,0,0.333,0.237,-0.1,0.149,0,0.322,0.09,0,0.048,0.267,0.07,0,0
04223,20111207,-121.45,48.54,0.304,0,0.006,0,0.335,0.13,0,0.125,0.237,-0.15,0.137,0,0.209,0.15,0,0.19,0.234,-0.21,0.292,0,0.32,0.04,0,0.036,0.264,-0.02,0,0
04223,20111208,-121.45,48.54,0.303,-0.03,0.006,0,0.332,0.04,0,0,0.233,-0.24,0.28,0,0.205,0.03,0,0.048,0.232,-0.34,0.435,0,0.318,-0.02,0,0,0.261,-0.11,0.054,0
04223,20111209,-121.45,48.54,0.302,-0.04,0.006,0,0.33,-0.03,0,0,0.231,-0.31,0.423,0,0.202,-0.07,0.054,0,0.229,-0.46,0.577,0,0.316,-0.06,0,0,0.259,-0.19,0.185,0
04223,20111210,-121.45,48.54,0.301,-0.07,0.006,0,0.328,-0.1,0,0,0.229,-0.39,0.565,0,0.199,-0.17,0.196,0,0.228,-0.56,0.72,0,0.314,-0.11,0,0,0.257,-0.26,0.327,0
04223,20111211,-121.45,48.54,0.3,-0.09,0.006,0,0.325,-0.16,0,0,0.226,-0.47,0.708,0,0.196,-0.27,0.339,0,0.226,-0.65,0.863,0,0.313,-0.16,0.024,0,0.255,-0.34,0.47,0
04223,20111212,-121.45,48.54,0.3,-0.09,0.006,0,0.323,-0.21,0,0,0.224,-0.54,0.851,0,0.193,-0.35,0.482,0,0.224,-0.75,0.988,0,0.312,-0.19,0.054,0,0.253,-0.4,0.613,0
04223,20111213,-121.45,48.54,0.299,-0.11,0,0,0.322,-0.26,0.03,0,0.223,-0.61,0.982,0,0.191,-0.43,0.625,0,0.223,-0.83,1,0,0.311,-0.22,0.067,0,0.252,-0.44,0.727,0
04223,20111214,-121.45,48.54,,,,,0.32,-0.3,0.173,0,0.221,-0.67,1,0,0.188,-0.51,0.768,0,0.222,-0.91,1,0,,,,,,,,
04223,20111215,-121.45,48.54,,,,,0.318,-0.35,0.315,0,0.219,-0.74,1,0,0.186,-0.58,0.911,0,0.221,-1,1,0,,,,,,,,
04223,20111216,-121.45,48.54,,,,,0.317,-0.39,0.458,0,0.218,-0.8,1,0,0.185,-0.65,1,0,0.219,-1.08,1,0,,,,,,,,
04223,20111217,-121.45,48.54,,,,,0.318,-0.37,0.476,0,0.218,-0.8,1,0,0.184,-0.67,1,0,0.219,-1.12,1,0,,,,,,,,
04223,20111218,-121.45,48.54,,,,,0.319,-0.33,0.476,0,0.219,-0.77,1,0,0.186,-0.63,0.869,0,0.219,-1.11,1,0,,,,,,,,
04223,20111219,-121.45,48.54,,,,,0.321,-0.29,0.476,0,0.22,-0.72,0.994,0,0.188,-0.58,0.726,0,0.22,-1.08,1,0,,,,,,,,
04223,20111220,-121.45,48.54,,,,,0.323,-0.25,0.446,0,0.222,-0.67,0.994,0,0.189,-0.51,0.583,0,0.221,-1.04,1,0,,,,,,,,
04223,20111221,-121.45,48.54,,,,,0.327,-0.13,0.304,0.089,0.225,-0.57,0.869,0,0.193,-0.39,0.44,0,0.223,-0.95,0.976,0,,,,,,,,
04223,20111222,-121.45,48.54,0.317,0.21,0,0.304,0.332,-0.02,0.161,0.101,0.229,-0.44,0.726,0,0.198,-0.24,0.298,0,0.225,-0.82,0.833,0,0.325,0.13,0,0.19,0.261,-0.19,0.196,0
04223,20111223,-121.45,48.54,0.315,0.16,0,0.22,0.335,0.04,0.018,0.101,0.232,-0.35,0.589,0,0.201,-0.12,0.155,0,0.227,-0.7,0.792,0,0.325,0.11,0,0.179,0.262,-0.15,0.101,0
04223,20111224,-121.45,48.54,0.311,0.1,0,0.095,0.335,0.05,0,0.101,0.233,-0.32,0.571,0,0.203,-0.07,0.012,0,0.229,-0.64,0.792,0,0.323,0.07,0,0.095,0.262,-0.15,0.071,0
04223,20111225,-121.45,48.54,0.318,0.21,0,0.173,0.341,0.18,0,0.214,0.237,-0.19,0.464,0.095,0.207,0.06,0,0.089,0.231,-0.52,0.702,0.036,0.33,0.21,0,0.22,0.267,-0.01,0.071,0.113
04223,20111226,-121.45,48.54,0.323,0.28,0,0.262,0.346,0.29,0,0.357,0.242,-0.06,0.327,0.19,0.213,0.21,0,0.232,0.233,-0.39,0.56,0.036,0.335,0.32,0,0.351,0.271,0.12,0.071,0.244
04223,20111227,-121.45,48.54,0.327,0.34,0,0.292,0.351,0.39,0,0.5,0.246,0.06,0.185,0.208,0.217,0.34,0,0.375,0.236,-0.27,0.417,0.036,0.339,0.41,0,0.393,0.275,0.24,0,0.286
04223,20111228,-121.45,48.54,0.33,0.4,0,0.393,0.358,0.55,0,0.554,0.254,0.33,0.167,0.351,0.227,0.64,0,0.518,0.241,0.02,0.298,0.107,0.344,0.52,0,0.44,0.282,0.45,0,0.429
04223,20111229,-121.45,48.54,0.338,0.53,0,0.536,0.366,0.76,0,0.685,0.267,0.74,0.167,0.494,0.241,1.09,0,0.661,0.25,0.57,0.298,0.25,0.352,0.71,0,0.583,0.292,0.8,0,0.571
04223,20111230,-121.45,48.54,0.343,0.62,0,0.643,0.374,0.93,0,0.827,0.276,0.98,0.161,0.637,0.25,1.36,0,0.804,0.255,0.85,0.196,0.393,0.358,0.84,0,0.726,0.299,1.03,0,0.714
04223,20111231,-121.45,48.54,0.347,0.68,0,0.726,0.38,1.09,0,0.97,0.283,1.22,0.036,0.78,0.259,1.65,0,0.946,0.26,1.17,0.054,0.536,0.363,0.96,0,0.869,0.306,1.24,0,0.857
04223,20120101,-121.45,48.54,0.342,0.59,0,0.619,0.378,1.04,0,0.988,0.284,1.23,0,0.792,0.26,1.67,0,1,0.261,1.24,0,0.619,0.36,0.87,0,0.833,0.305,1.22,0,0.869
04223,20120102,-121.45,48.54,0.338,0.52,0,0.53,0.376,0.98,0,0.851,0.282,1.18,0,0.696,0.259,1.62,0,0.976,0.261,1.24,0,0.619,0.357,0.79,0,0.702,0.303,1.15,0,0.738
04223,20120103,-121.45,48.54,0.338,0.52,0,0.554,0.376,0.98,0,0.762,0.283,1.21,0,0.72,0.259,1.62,0,0.875,0.262,1.28,0,0.655,0.357,0.79,0,0.714,0.304,1.17,0,0.75
04223,20120104,-121.45,48.54,0.336,0.48,0,0.53,0.374,0.92,0,0.762,0.28,1.1,0,0.72,0.256,1.5,0,0.875,0.261,1.2,0,0.726,0.355,0.73,0,0.714,0.301,1.09,0,0.75